Burlington, CO

6:38 PM MST on December 07, 2016 (GMT -0700)
Kit Carson County

Weather History for KITR - November, 2013

Change the Weather History Date:

Friday, November 1, 2013

  Actual Average Record
Temperature  
Mean Temperature 41 °F 45 °F  
Max Temperature 54 °F 59 °F 79 °F (1990)
Min Temperature 27 °F 30 °F 13 °F (1991)
Degree Days  
Heating Degree Days 24    
Moisture  
Dew Point 24 °F    
Average Humidity 50    
Maximum Humidity 79    
Minimum Humidity 25    
Precipitation  
Precipitation 0.00 in 0.04 in 0.57 in (1928)
Month to date precipitation 0.00 0.04  
Year to date precipitation 16.52 16.48  
Sea Level Pressure  
Sea Level Pressure 30.06 in    
Wind  
Wind Speed 16 mph (NW)    
Max Wind Speed 32 mph    
Max Gust Speed 40 mph    
Visibility 10 miles    
Events      
T = Trace of Precipitation, MM = Missing Value Source: NWS Daily Summary

Daily Weather History Graph

Daily Weather History Graph

Search for Another Location

Airport or City:

Trip Planner

Search our weather history database for the weather conditions in past years. The results will help you decide how hot, cold, wet, or windy it might be!

Date:

Astronomy

Nov. 01, 2013 Rise Set
Actual Time 7:17 AM MDT 5:47 PM MDT
Civil Twilight 6:49 AM MDT 6:15 PM MDT
Nautical Twilight 6:17 AM MDT 6:47 PM MDT
Astronomical Twilight 5:46 AM MDT 7:18 PM MDT
Moon 5:12 AM MDT (11/1) 4:41 PM MDT (11/1)
Length of Visible Light 11h 26m
Length of Day
10h 30m
Waning Crescent, 4% of the Moon is Illuminated
Nov 1
Waning Crescent
Nov 3
New
Nov 9
First Quarter
Nov 17
Full
Nov 25
Last Quarter

Hourly Weather History & Observations

Time (MDT) Temp. Windchill Dew Point Humidity Pressure Visibility Wind Dir Wind Speed Gust Speed Precip Events Conditions
12:53 AM 45.0 °F 37.9 °F 26.1 °F 48% 29.83 in 10.0 mi NW 16.1 mph - N/A   Overcast
1:53 AM 46.0 °F 39.9 °F 27.0 °F 47% 29.83 in 10.0 mi NW 13.8 mph - N/A   Overcast
2:53 AM 46.9 °F - 28.9 °F 50% 29.84 in 10.0 mi NW 17.3 mph 25.3 mph N/A   Mostly Cloudy
3:53 AM 42.1 °F 34.5 °F 32.0 °F 67% 29.88 in 10.0 mi NNW 15.0 mph - N/A   Clear
4:53 AM 39.9 °F 32.5 °F 32.0 °F 73% 29.91 in 10.0 mi NNW 12.7 mph - N/A   Clear
5:53 AM 41.0 °F 33.9 °F 30.9 °F 67% 29.96 in 10.0 mi NNW 12.7 mph - N/A   Clear
6:53 AM 36.0 °F 29.0 °F 30.0 °F 79% 29.99 in 10.0 mi WNW 9.2 mph - N/A   Partly Cloudy
7:53 AM 39.9 °F 32.9 °F 30.9 °F 70% 30.03 in 10.0 mi NNW 11.5 mph - N/A   Partly Cloudy
8:53 AM 46.0 °F 38.0 °F 30.0 °F 54% 30.06 in 10.0 mi NNW 21.9 mph 28.8 mph N/A   Partly Cloudy
9:53 AM 48.0 °F - 28.0 °F 46% 30.08 in 10.0 mi North 24.2 mph 33.4 mph N/A   Clear
10:53 AM 50.0 °F - 27.0 °F 41% 30.09 in 10.0 mi NNW 21.9 mph 31.1 mph N/A   Clear
11:53 AM 51.1 °F - 26.1 °F 38% 30.07 in 10.0 mi NNW 26.5 mph 34.5 mph N/A   Partly Cloudy
12:53 PM 53.1 °F - 25.0 °F 34% 30.05 in 10.0 mi NNW 28.8 mph 36.8 mph N/A   Partly Cloudy
1:53 PM 54.0 °F - 19.9 °F 26% 30.04 in 10.0 mi NNW 32.2 mph 40.3 mph N/A   Partly Cloudy
2:53 PM 53.1 °F - 19.9 °F 27% 30.04 in 10.0 mi North 27.6 mph 38.0 mph N/A   Partly Cloudy
3:53 PM 53.1 °F - 19.0 °F 26% 30.07 in 10.0 mi NNW 23.0 mph 35.7 mph N/A   Partly Cloudy
4:53 PM 52.0 °F - 17.1 °F 25% 30.09 in 10.0 mi North 21.9 mph 32.2 mph N/A   Clear
5:53 PM 46.9 °F - 18.0 °F 32% 30.13 in 10.0 mi North 13.8 mph - N/A   Clear
6:53 PM 41.0 °F 35.2 °F 19.0 °F 41% 30.17 in 10.0 mi North 9.2 mph - N/A   Clear
7:53 PM 34.0 °F 28.0 °F 19.0 °F 54% 30.21 in 10.0 mi West 6.9 mph - N/A   Clear
8:53 PM 32.0 °F 24.8 °F 19.0 °F 59% 30.22 in 10.0 mi West 8.1 mph - N/A   Clear
9:53 PM 30.0 °F 22.4 °F 19.0 °F 64% 30.23 in 10.0 mi West 8.1 mph - N/A   Clear
10:53 PM 28.9 °F 20.4 °F 19.0 °F 67% 30.24 in 10.0 mi West 9.2 mph - N/A   Clear
11:53 PM 27.0 °F 18.7 °F 19.0 °F 72% 30.26 in 10.0 mi West 8.1 mph - N/A   Clear